Content
SEND FEEDBACK

Daily
Averages
Monthly
Summary
Greece

ANDRAVIDHA, GREECE


Home > Europe > Greece
Elevation: 50 feet     Latitude: 37 55N     Longitude: 021 17E

WEATHER
 
SELECT A DAY
Number of Records: 92,908;   Date Range: 7/11/96 - 10/23/14
 
SHARE

PRINT THIS DATA

[ ← Previous Day ]
WEATHER ALMANAC - SEPTEMBER 1, 2013
[ Next Day → ]
[ °C ]   °F
Weather ElementAverageHighLow
Temperature78.8 °F87.8 °F (11:50 am)66.2 °F (6:50 am)
Dewpoint61.9 °F64.4 °F (7:50 pm)57.2 °F (11:20 am)
Humidity58 %83 % (6:50 am)31 % (3:00 pm)
Barometer30.01 in30.04 in (11:20 am)29.95 in (5:50 am)
Wind Speed3.6 mph6.9 mph (11:20 am)
Weather ElementAverage
Visibility6.2 mi
Wind DirectionESE (107.7 °)

Weather ElementTotal
Precipitation---
Cooling Degree Days12 (Base 65)
Growing Degree Days27 (Base 50)
Averaged from 31 records on September 1, 2013
WEATHER CONDITIONS BREAKOUT
WIND DIRECTION BREAKOUT
WEATHER BY HOUR - SEPTEMBER 1, 2013
[ °C ]   °F
Local TimeTemperatureDewpointHumidityBarometerVisibilityWind DirectionWind SpeedGust SpeedPrecipitationEventsConditions
12:50 AM73.4 °F62.6 °F69 %29.98 in6.2 miCalmPartly Cloudy
2:50 AM69.8 °F62.6 °F78 %29.98 inCalmClear
5:50 AM68.0 °F60.8 °F78 %29.95 inCalmClear
6:50 AM66.2 °F60.8 °F83 %29.98 inCalmClear
7:20 AM66.2 °F60.8 °F83 %29.98 inCalmClear
7:50 AM68.0 °F60.8 °F78 %29.98 inCalmClear
8:20 AM71.6 °F60.8 °F69 %29.98 inCalmClear
8:50 AM75.2 °F60.8 °F61 %30.01 inCalmClear
9:50 AM80.6 °F62.6 °F54 %30.01 inCalmClear
11:20 AM86.0 °F57.2 °F37 %30.04 inSouth (180°)6.9 mphClear
11:50 AM87.8 °F57.2 °F35 %30.04 in6.2 miSSW (210°)6.9 mphScattered Clouds
1:50 PM87.8 °F62.6 °F43 %30.01 in6.2 miSW (230°)6.9 mphScattered Clouds
2:50 PM86.0 °F60.8 °F43 %30.01 in6.2 miSSW (210°)6.9 mphMostly Cloudy
3:00 PM86.0 °F60.0 °F31 %30.02 in6.0 miSSW (210°)6.9 mphScattered Clouds
3:20 PM86.0 °F60.8 °F43 %30.01 in6.2 miSSW (210°)6.9 mphMostly Cloudy
3:50 PM87.8 °F59.0 °F38 %30.01 in6.2 miSSW (200°)6.9 mphMostly Cloudy
4:20 PM87.8 °F59.0 °F38 %30.01 in6.2 miSSW (200°)6.9 mphMostly Cloudy
4:50 PM87.8 °F60.8 °F40 %29.98 in6.2 miSouth (190°)6.9 mphMostly Cloudy
5:20 PM87.8 °F60.8 °F40 %29.98 in6.2 miSouth (190°)6.9 mphMostly Cloudy
5:50 PM84.2 °F62.6 °F48 %30.01 in6.2 miSSW (200°)6.9 mphPartly Cloudy
6:20 PM84.2 °F62.6 °F48 %30.01 in6.2 miSSW (200°)6.9 mphPartly Cloudy
6:50 PM82.4 °F62.6 °F51 %30.01 in6.2 miSouth (180°)6.9 mphPartly Cloudy
7:50 PM78.8 °F64.4 °F61 %30.01 in6.2 miSouth (180°)4.6 mphScattered Clouds
8:20 PM78.8 °F64.4 °F61 %30.01 in6.2 miSouth (180°)4.6 mphScattered Clouds
8:50 PM77.0 °F64.4 °F65 %30.04 in6.2 miCalmPartly Cloudy
9:20 PM77.0 °F64.4 °F65 %30.04 in6.2 miCalmPartly Cloudy
9:50 PM75.2 °F64.4 °F69 %30.04 in6.2 miCalmPartly Cloudy
10:20 PM75.2 °F64.4 °F69 %30.04 in6.2 miCalmPartly Cloudy
10:50 PM73.4 °F64.4 °F73 %30.04 in6.2 miESE (120°)4.6 mphPartly Cloudy
11:20 PM73.4 °F64.4 °F73 %30.04 in6.2 miESE (120°)4.6 mphPartly Cloudy
11:50 PM73.4 °F64.4 °F73 %30.04 in6.2 miSE (130°)4.6 mphPartly Cloudy
Hourly data recorded from LGAD, located miles away from Andravidha, Greece







STORIES FROM OUR PARTNERS